348P/PanSTARRS (2016)

Japanese version
Home page
Updated on March 25, 2017

---------------------------------------------------------------------

* Profile

Designation 348P/2017 A2
Discovery Date January 2, 2017
Magnitude 21.3 mag
Discoverer Pan-STARRS 1 telescope (Haleakala)

* Pictures

* Orbital Elements

Epoch 2016 June 21.0 TT = JDT 2457560.5
T 2016 June 22.14286 TT                                 MPCW
q   2.2121519            (2000.0)            P               Q
n   0.17507130     Peri.  133.75508     +0.01919858     -0.97570505
a   3.1646529      Node   313.74714     +0.80839629     +0.14359528
e   0.3009812      Incl.   17.58452     +0.58832547     -0.16546920
P   5.63
From 29 observations 2011 Jan. 13-2017 Jan. 5, mean residual 0".7.

* Magnitudes Graph

        m1 = 14.0 + 5 log d + 10.0 log r

---------------------------------------------------------------------

The orbital elements are published on M.P.E.C. 2017-A32.
The magnitudes graphs are made with Comet for Windows.

---------------------------------------------------------------------

Copyright(C) Seiichi Yoshida (comet@aerith.net). All rights reserved.